Find Shiyan Weixing 1

NORAD ID: 28220 Int'l Des: 2004-012 Owner: CASC Country: CN operational
LEOCIRCULARRETROGRADE

实时位置

正在加载3D地球...

关于 Shiyan Weixing 1

正在加载描述...

即将过境

Passes for default location (London). Set your location on the main map for personalized predictions.

高度历史

Loading altitude history...

两行轨道根数

1 28220U 04012A 26105.19173628 .00006435 00000-0 20999-3 0 9992
2 28220 97.8715 179.2459 0004963 231.3936 128.6860 15.32158436201449
Epoch: Apr 15, 2026 • Age: 6 hours

当前状态

高度 492.8 km
速度 7.62 km/s
星下点 -65.72°S, 165.04°W
发射日期 Apr 18, 2004
运行时间 21.9 years
类型 other

技术详情

分类 Payload
质量 204.00 kg
干质量 204.00 kg
总质量 204.00 kg
长度 1.00 m
直径 1.00 m
跨度 3.00 m
形状 Box + 2 Pan
制造商 DFH/HARB
平台类型 SY
阶段状态 In Orbit
所有者/国家 CASC/CN

Most Searched